Dades meteomassalio
Diari Summary for Marc 23, 2017 Units:  English    Metric   Both
« Previous Day
Next Day »
Diari Semanal Mensual Anual Personalitzat
  Maxima: Minima: Mijana:
Temperatura: TemperatureC °F 3.4 °F 7.6 °F
Rosada: DewpointC °F -1.4 °F 1.9 °F
Humitat: Humidity % 38 % 69 %
Velocitat del vent: WindSpeedKMH mph 0.0 mph 9.8 mph
Racha vent: WindSpeedGustKMH mph - -
Vent:- - WSW
Pressio: PressurehPa in 1009.4 in -
Pluja: 0.5 in    
Historical Graphs
 
 
Tabular Data for Marc 23, 2017
Time Temperature Dew Point Pressure Wind Wind Speed Wind Gust Humidity Rainfall Rate (Hourly) solar Conditions
TemperatureC °F DewpointC °F PressurehPa in Calm     Humidity % HourlyPrecipMM in SolarRadiationWatts/m^2 W/m2 Conditions
00:00 7.7 °F 4.1 °F 1010.7 in Calm     78 % 0.0 in 0.0 W/m2 CLR
00:05 7.7 °F 4.1 °F 1010.7 in Calm     78 % 0.0 in 0.0 W/m2 CLR
00:10 7.7 °F 4.1 °F 1010.7 in Calm     78 % 0.0 in 0.0 W/m2 CLR
00:15 7.7 °F 4.1 °F 1010.7 in Calm     78 % 0.0 in 0.0 W/m2 CLR
00:20 7.6 °F 4.0 °F 1010.7 in Calm     78 % 0.0 in 0.0 W/m2 CLR
00:25 7.5 °F 3.9 °F 1010.7 in Calm     78 % 0.0 in 0.0 W/m2 CLR
00:30 7.3 °F 3.9 °F 1010.7 in Calm     79 % 0.0 in 0.0 W/m2 CLR
00:35 7.2 °F 4.1 °F 1010.7 in Calm     81 % 0.0 in 0.0 W/m2 CLR
00:40 7.1 °F 4.1 °F 1010.7 in Calm     81 % 0.0 in 0.0 W/m2 CLR
00:45 7.1 °F 4.1 °F 1010.7 in Calm     81 % 0.0 in 0.0 W/m2 CLR
00:50 7.2 °F 4.2 °F 1010.4 in Calm     81 % 0.0 in 0.0 W/m2 CLR
00:55 7.2 °F 4.2 °F 1010.7 in Calm     81 % 0.0 in 0.0 W/m2 CLR
01:00 7.2 °F 4.1 °F 1010.7 in Calm     81 % 0.0 in 0.0 W/m2 CLR
01:05 7.2 °F 4.2 °F 1010.7 in Calm     81 % 0.0 in 0.0 W/m2 CLR
01:10 7.2 °F 4.2 °F 1010.7 in Calm     81 % 0.0 in 0.0 W/m2 CLR
01:15 7.2 °F 4.2 °F 1010.7 in Calm     81 % 0.0 in 0.0 W/m2 CLR
01:20 7.2 °F 4.2 °F 1010.7 in Calm     81 % 0.0 in 0.0 W/m2 CLR
01:25 7.3 °F 4.2 °F 1010.7 in Calm     81 % 0.0 in 0.0 W/m2 CLR
01:30 7.3 °F 4.2 °F 1010.7 in Calm     81 % 0.0 in 0.0 W/m2 CLR
01:35 7.3 °F 4.2 °F 1010.7 in Calm     81 % 0.0 in 0.0 W/m2 CLR
01:40 7.3 °F 4.2 °F 1010.7 in Calm     81 % 0.0 in 0.0 W/m2 CLR
01:45 7.2 °F 4.0 °F 1010.7 in Calm     80 % 0.0 in 0.0 W/m2 CLR
01:50 7.3 °F 4.1 °F 1010.7 in Calm     80 % 0.0 in 0.0 W/m2 CLR
01:55 7.3 °F 4.2 °F 1010.7 in Calm     81 % 0.0 in 0.0 W/m2 CLR
02:00 7.3 °F 4.3 °F 1010.7 in Calm     81 % 0.0 in 0.0 W/m2 CLR
02:05 7.3 °F 4.3 °F 1010.7 in Calm     81 % 0.0 in 0.0 W/m2 CLR
02:10 7.3 °F 4.3 °F 1010.4 in Calm     81 % 0.0 in 0.0 W/m2 CLR
02:15 7.3 °F 4.3 °F 1010.4 in Calm     81 % 0.0 in 0.0 W/m2 CLR
02:20 7.4 °F 4.3 °F 1010.4 in Calm     81 % 0.0 in 0.0 W/m2 CLR
02:25 7.4 °F 4.5 °F 1010.4 in Calm     82 % 0.0 in 0.0 W/m2 CLR
02:30 7.3 °F 4.4 °F 1010.4 in Calm     82 % 0.0 in 0.0 W/m2 CLR
02:35 7.3 °F 4.4 °F 1010.4 in Calm     82 % 0.0 in 0.0 W/m2 CLR
02:40 7.4 °F 4.5 °F 1010.0 in Calm     82 % 0.0 in 0.0 W/m2 CLR
02:46 7.4 °F 4.5 °F 1010.4 in Calm     82 % 0.0 in 0.0 W/m2 CLR
02:51 7.4 °F 4.4 °F 1010.0 in Calm     81 % 0.0 in 0.0 W/m2 CLR
02:56 7.4 °F 4.4 °F 1010.0 in Calm     81 % 0.0 in 0.0 W/m2 CLR
03:01 7.4 °F 4.4 °F 1009.7 in Calm     81 % 0.0 in 0.0 W/m2 CLR
03:06 7.4 °F 4.2 °F 1009.7 in Calm     80 % 0.0 in 0.0 W/m2 CLR
03:11 7.4 °F 4.2 °F 1009.7 in Calm     80 % 0.0 in 0.0 W/m2 CLR
03:16 7.3 °F 4.3 °F 1009.7 in Calm     81 % 0.0 in 0.0 W/m2 CLR
03:21 7.2 °F 4.2 °F 1009.4 in Calm     81 % 0.0 in 0.0 W/m2 CLR
03:26 7.2 °F 4.2 °F 1009.4 in Calm     81 % 0.0 in 0.0 W/m2 CLR
03:31 7.2 °F 4.3 °F 1009.4 in Calm     82 % 0.0 in 0.0 W/m2 CLR
03:36 7.1 °F 4.4 °F 1009.4 in Calm     83 % 0.0 in 0.0 W/m2 CLR
03:41 7.0 °F 4.3 °F 1009.7 in Calm     83 % 0.0 in 0.0 W/m2 CLR
03:46 6.9 °F 4.3 °F 1010.0 in Calm     83 % 0.0 in 0.0 W/m2 CLR
03:51 6.9 °F 4.2 °F 1009.7 in Calm     83 % 0.0 in 0.0 W/m2 CLR
03:56 6.8 °F 4.3 °F 1009.7 in Calm     84 % 0.0 in 0.0 W/m2 CLR
04:01 6.8 °F 4.3 °F 1010.0 in Calm     84 % 0.0 in 0.0 W/m2 CLR
04:06 6.8 °F 4.3 °F 1009.7 in Calm     84 % 0.0 in 0.0 W/m2 CLR
04:11 6.7 °F 4.2 °F 1009.7 in Calm     84 % 0.0 in 0.0 W/m2 CLR
04:16 6.6 °F 4.1 °F 1009.7 in Calm     84 % 0.0 in 0.0 W/m2 CLR
04:21 6.6 °F 4.1 °F 1009.7 in Calm     84 % 0.0 in 0.0 W/m2 CLR
04:26 6.6 °F 4.1 °F 1009.7 in Calm     84 % 0.0 in 0.0 W/m2 CLR
04:31 6.6 °F 4.1 °F 1009.7 in Calm     84 % 0.0 in 0.0 W/m2 CLR
04:36 6.6 °F 3.9 °F 1009.7 in Calm     83 % 0.0 in 0.0 W/m2 CLR
04:41 6.6 °F 3.8 °F 1010.0 in Calm     82 % 0.0 in 0.0 W/m2 CLR
04:46 6.6 °F 3.6 °F 1009.7 in NNW 9.7 mph 9.7 mph 81 % 0.0 in 0.0 W/m2 CLR
04:51 6.7 °F 3.3 °F 1010.0 in Calm     79 % 0.0 in 0.0 W/m2 CLR
04:56 6.8 °F 3.0 °F 1010.0 in NW 16.7 mph 16.7 mph 77 % 0.0 in 0.0 W/m2 CLR
05:01 6.8 °F 2.7 °F 1010.0 in NNW 18.5 mph 18.5 mph 75 % 0.0 in 0.0 W/m2 CLR
05:06 6.8 °F 2.4 °F 1010.0 in NW 16.7 mph 16.7 mph 74 % 0.0 in 0.0 W/m2 CLR
05:11 6.8 °F 2.3 °F 1010.0 in NW 11.3 mph 11.3 mph 73 % 0.0 in 0.0 W/m2 CLR
05:16 6.8 °F 2.3 °F 1010.0 in NW 16.7 mph 16.7 mph 73 % 0.0 in 0.0 W/m2 CLR
05:21 6.8 °F 2.3 °F 1010.0 in WNW 11.1 mph 11.1 mph 73 % 0.0 in 0.0 W/m2 CLR
05:26 6.7 °F 2.2 °F 1010.4 in WNW 14.5 mph 14.5 mph 73 % 0.0 in 0.0 W/m2 CLR
05:31 6.7 °F 2.2 °F 1010.4 in NW 14.8 mph 14.8 mph 73 % 0.0 in 0.0 W/m2 CLR
05:36 6.7 °F 2.2 °F 1010.4 in NW 14.8 mph 14.8 mph 73 % 0.0 in 0.0 W/m2 CLR
05:41 6.7 °F 2.0 °F 1010.4 in NW 18.5 mph 18.5 mph 72 % 0.0 in 0.0 W/m2 CLR
05:46 6.7 °F 2.2 °F 1010.4 in NW 13.0 mph 13.0 mph 73 % 0.0 in 0.0 W/m2 CLR
05:51 6.6 °F 2.1 °F 1010.4 in WNW 13.0 mph 13.0 mph 73 % 0.0 in 0.0 W/m2 CLR
05:56 6.6 °F 2.1 °F 1010.4 in WNW 22.2 mph 22.2 mph 73 % 0.0 in 0.0 W/m2 CLR
06:01 6.6 °F 2.1 °F 1010.4 in WNW 16.7 mph 16.7 mph 73 % 0.0 in 0.0 W/m2 CLR
06:06 6.6 °F 2.1 °F 1010.4 in NNW 18.5 mph 18.5 mph 73 % 0.0 in 0.0 W/m2 CLR
06:11 6.6 °F 1.9 °F 1010.4 in NW 14.8 mph 14.8 mph 72 % 0.0 in 0.0 W/m2 CLR
06:16 6.6 °F 1.3 °F 1010.4 in WNW 19.3 mph 19.3 mph 69 % 0.0 in 0.0 W/m2 CLR
06:21 6.4 °F 0.9 °F 1010.4 in NNW 25.9 mph 25.9 mph 68 % 0.0 in 0.0 W/m2 CLR
06:26 6.3 °F 0.8 °F 1010.7 in WNW 31.5 mph 31.5 mph 68 % 0.0 in 0.0 W/m2 CLR
06:31 6.2 °F 0.7 °F 1010.7 in NW 27.8 mph 27.8 mph 68 % 0.0 in 0.0 W/m2 CLR
06:36 6.1 °F 0.7 °F 1010.7 in NNW 24.1 mph 24.1 mph 68 % 0.0 in 0.0 W/m2 CLR
06:41 6.0 °F 0.6 °F 1010.7 in NW 18.5 mph 18.5 mph 68 % 0.0 in 0.0 W/m2 CLR
06:46 6.0 °F 0.7 °F 1010.7 in NW 20.9 mph 20.9 mph 69 % 0.0 in 0.0 W/m2 CLR
06:51 5.9 °F 0.6 °F 1011.1 in NW 18.5 mph 18.5 mph 69 % 0.0 in 0.0 W/m2 OVC
06:56 5.9 °F 0.6 °F 1011.1 in NW 16.7 mph 16.7 mph 69 % 0.0 in 0.0 W/m2 OVC
07:01 5.8 °F 0.7 °F 1011.1 in NNW 14.8 mph 14.8 mph 70 % 0.0 in 0.0 W/m2 OVC
07:06 5.7 °F 0.7 °F 1011.1 in WNW 16.7 mph 16.7 mph 70 % 0.0 in 0.0 W/m2 OVC
07:11 5.6 °F 0.6 °F 1011.1 in NNW 18.5 mph 18.5 mph 70 % 0.0 in 5.0 W/m2 OVC
07:16 5.6 °F 0.7 °F 1011.4 in WNW 13.0 mph 13.0 mph 71 % 0.0 in 7.0 W/m2 BKN
07:21 5.4 °F 0.6 °F 1011.4 in NW 16.7 mph 16.7 mph 71 % 0.0 in 9.0 W/m2 BKN
07:26 5.4 °F 0.6 °F 1011.4 in NW 16.7 mph 16.7 mph 71 % 0.0 in 11.0 W/m2 BKN
07:31 5.3 °F 0.4 °F 1011.4 in NNW 13.0 mph 13.0 mph 71 % 0.0 in 12.0 W/m2 BKN
07:36 5.2 °F 0.6 °F 1011.4 in NW 13.0 mph 13.0 mph 72 % 0.0 in 16.0 W/m2 BKN
07:41 5.1 °F 0.4 °F 1011.7 in NW 11.3 mph 11.3 mph 72 % 0.0 in 19.0 W/m2 BKN
07:46 4.9 °F 0.5 °F 1011.7 in WNW 9.3 mph 9.3 mph 73 % 0.0 in 21.0 W/m2 BKN
07:51 4.8 °F 0.6 °F 1011.7 in WNW 9.7 mph 9.7 mph 74 % 0.0 in 53.0 W/m2 SCT
07:56 4.8 °F 0.6 °F 1011.7 in WNW 11.3 mph 11.3 mph 74 % 0.0 in 74.0 W/m2 FEW
08:01 4.9 °F 0.9 °F 1012.1 in NW 11.1 mph 11.1 mph 75 % 0.0 in 105.0 W/m2 FEW
08:06 5.2 °F 0.9 °F 1012.1 in NNW 13.0 mph 13.0 mph 74 % 0.0 in 137.0 W/m2 CLR
08:11 5.6 °F 0.9 °F 1012.1 in WNW 13.0 mph 13.0 mph 72 % 0.0 in 156.0 W/m2 CLR
08:16 5.8 °F 1.1 °F 1012.1 in NW 13.0 mph 13.0 mph 72 % 0.0 in 176.0 W/m2 CLR
08:21 6.0 °F 0.9 °F 1012.1 in NW 11.1 mph 11.1 mph 70 % 0.0 in 199.0 W/m2 CLR
08:26 6.1 °F 1.2 °F 1012.1 in Calm     71 % 0.0 in 216.0 W/m2 CLR
08:32 6.4 °F 1.1 °F 1012.1 in NW 16.7 mph 16.7 mph 69 % 0.0 in 236.0 W/m2 CLR
08:37 6.6 °F 0.9 °F 1012.1 in NNW 18.5 mph 18.5 mph 67 % 0.0 in 253.0 W/m2 CLR
08:42 6.7 °F 0.6 °F 1012.1 in WNW 14.8 mph 14.8 mph 65 % 0.0 in 272.0 W/m2 CLR
08:47 6.9 °F 0.6 °F 1012.1 in NW 20.4 mph 20.4 mph 64 % 0.0 in 292.0 W/m2 CLR
08:52 7.0 °F 0.2 °F 1012.1 in NW 33.3 mph 33.3 mph 62 % 0.0 in 308.0 W/m2 CLR
08:57 7.1 °F 0.3 °F 1012.1 in NW 24.1 mph 24.1 mph 62 % 0.0 in 323.0 W/m2 CLR
09:02 7.2 °F 0.4 °F 1012.1 in NNW 25.9 mph 25.9 mph 62 % 0.0 in 339.0 W/m2 CLR
09:07 7.2 °F -0.1 °F 1012.1 in WNW 25.9 mph 25.9 mph 60 % 0.0 in 353.0 W/m2 CLR
09:12 7.2 °F 0.2 °F 1012.1 in NW 22.2 mph 22.2 mph 61 % 0.0 in 373.0 W/m2 CLR
09:17 7.3 °F 0.1 °F 1012.1 in NW 20.4 mph 20.4 mph 60 % 0.0 in 387.0 W/m2 CLR
09:22 7.4 °F 0.1 °F 1012.1 in NNW 25.9 mph 25.9 mph 60 % 0.0 in 403.0 W/m2 CLR
09:27 7.6 °F 0.3 °F 1011.7 in NW 22.2 mph 22.2 mph 60 % 0.0 in 417.0 W/m2 CLR
09:37 7.9 °F 0.4 °F 1011.7 in NW 20.4 mph 20.4 mph 59 % 0.0 in 448.0 W/m2 CLR
09:42 7.9 °F 0.4 °F 1011.7 in NW 22.2 mph 22.2 mph 59 % 0.0 in 461.0 W/m2 CLR
09:47 8.1 °F 0.3 °F 1011.7 in NW 16.7 mph 16.7 mph 58 % 0.0 in 478.0 W/m2 CLR
09:52 8.1 °F 0.3 °F 1011.7 in NW 17.7 mph 18.0 mph 58 % 0.0 in 492.0 W/m2 CLR
09:57 8.1 °F 0.5 °F 1011.7 in NNW 20.4 mph 20.4 mph 59 % 0.0 in 515.0 W/m2 CLR
10:02 8.0 °F 0.2 °F 1012.1 in NNW 22.2 mph 22.2 mph 58 % 0.0 in 529.0 W/m2 CLR
10:08 8.2 °F 0.2 °F 1011.7 in WNW 18.5 mph 18.5 mph 57 % 0.0 in 536.0 W/m2 CLR
10:13 8.4 °F 0.8 °F 1012.1 in NW 16.1 mph 16.1 mph 59 % 0.0 in 555.0 W/m2 CLR
10:18 8.5 °F 0.2 °F 1011.7 in WNW 5.6 mph 7.2 mph 56 % 0.0 in 568.0 W/m2 CLR
10:23 8.8 °F 1.0 °F 1011.7 in NNE 13.0 mph 13.0 mph 58 % 0.0 in 578.0 W/m2 CLR
10:28 8.9 °F 0.6 °F 1011.7 in North 18.5 mph 18.5 mph 56 % 0.0 in 587.0 W/m2 CLR
10:33 8.9 °F 0.6 °F 1011.7 in NNW 19.3 mph 19.3 mph 56 % 0.0 in 617.0 W/m2 CLR
10:43 9.0 °F 0.7 °F 1011.7 in NNW 18.5 mph 18.5 mph 56 % 0.0 in 624.0 W/m2 CLR
10:48 8.9 °F 0.6 °F 1011.7 in North 16.7 mph 16.7 mph 56 % 0.0 in 640.0 W/m2 CLR
10:53 9.1 °F 0.3 °F 1011.7 in NNW 16.7 mph 16.7 mph 54 % 0.0 in 657.0 W/m2 CLR
10:58 9.1 °F 0.6 °F 1011.7 in WNW 18.5 mph 18.5 mph 55 % 0.0 in 659.0 W/m2 CLR
11:03 9.1 °F 0.6 °F 1011.7 in NNW 11.3 mph 11.3 mph 55 % 0.0 in 677.0 W/m2 CLR
11:08 9.3 °F 0.2 °F 1011.7 in West 20.4 mph 20.4 mph 53 % 0.0 in 682.0 W/m2 CLR
11:13 9.2 °F 0.9 °F 1011.7 in NW 20.9 mph 20.9 mph 56 % 0.0 in 689.0 W/m2 CLR
11:18 9.2 °F 0.9 °F 1011.7 in NW 18.5 mph 18.5 mph 56 % 0.0 in 698.0 W/m2 CLR
11:23 9.3 °F 0.9 °F 1011.7 in NNW 25.9 mph 25.9 mph 56 % 0.0 in 710.0 W/m2 CLR
11:28 9.4 °F 0.3 °F 1011.7 in NW 13.0 mph 13.0 mph 53 % 0.0 in 719.0 W/m2 CLR
11:33 9.5 °F 0.7 °F 1011.7 in NW 19.3 mph 19.3 mph 54 % 0.0 in 738.0 W/m2 CLR
11:43 9.6 °F 1.0 °F 1011.4 in West 16.1 mph 16.1 mph 55 % 0.0 in 745.0 W/m2 CLR
11:48 9.6 °F 0.4 °F 1011.4 in WNW 18.5 mph 18.5 mph 53 % 0.0 in 758.0 W/m2 CLR
11:53 9.7 °F 0.8 °F 1011.4 in NW 18.5 mph 18.5 mph 54 % 0.0 in 777.0 W/m2 CLR
11:58 9.9 °F 1.3 °F 1011.4 in NW 22.2 mph 22.2 mph 55 % 0.0 in 802.0 W/m2 CLR
12:03 10.1 °F 0.9 °F 1011.4 in NW 18.5 mph 18.5 mph 53 % 0.0 in 766.0 W/m2 CLR
12:08 10.2 °F 0.7 °F 1011.1 in WNW 5.6 mph 5.6 mph 52 % 0.0 in 766.0 W/m2 CLR
12:13 10.1 °F 0.4 °F 1011.1 in WNW 14.8 mph 14.8 mph 51 % 0.0 in 795.0 W/m2 CLR
12:18 9.9 °F 0.3 °F 1011.1 in NW 5.6 mph 5.6 mph 51 % 0.0 in 775.0 W/m2 CLR
12:23 10.4 °F 0.7 °F 1011.1 in NW 13.0 mph 13.0 mph 51 % 0.0 in 782.0 W/m2 CLR
12:28 10.6 °F 0.8 °F 1011.1 in NW 20.4 mph 20.4 mph 51 % 0.0 in 784.0 W/m2 CLR
12:33 10.5 °F 0.8 °F 1011.1 in North 14.8 mph 14.8 mph 51 % 0.0 in 791.0 W/m2 CLR
12:38 10.5 °F 0.8 °F 1011.1 in North 20.9 mph 20.9 mph 51 % 0.0 in 791.0 W/m2 CLR
12:43 10.8 °F 0.8 °F 1011.1 in NW 17.7 mph 17.7 mph 50 % 0.0 in 795.0 W/m2 CLR
12:44 10.8 °F -0.1 °F 1011.1 in NNW 22.2 mph 22.2 mph 47 % 0.0 in 796.0 W/m2 CLR
12:49 10.6 °F -0.2 °F 1011.1 in North 14.8 mph 14.8 mph 47 % 0.0 in 798.0 W/m2 CLR
12:54 10.7 °F 0.7 °F 1010.7 in WNW 1.6 mph 1.6 mph 50 % 0.0 in 800.0 W/m2 CLR
12:59 11.2 °F 0.9 °F 1010.7 in NNW 11.1 mph 11.1 mph 49 % 0.0 in 800.0 W/m2 CLR
13:04 11.4 °F 0.4 °F 1010.7 in West 11.1 mph 11.1 mph 47 % 0.0 in 802.0 W/m2 CLR
13:09 11.3 °F 0.7 °F 1010.7 in NW 14.8 mph 14.8 mph 48 % 0.0 in 803.0 W/m2 CLR
13:14 11.4 °F 0.5 °F 1010.7 in NNW 14.8 mph 14.8 mph 47 % 0.0 in 812.0 W/m2 CLR
13:19 11.5 °F 0.8 °F 1010.7 in WNW 14.8 mph 14.8 mph 48 % 0.0 in 802.0 W/m2 CLR
13:24 11.7 °F 0.4 °F 1010.7 in WNW 16.7 mph 16.7 mph 46 % 0.0 in 803.0 W/m2 CLR
13:29 11.6 °F 0.4 °F 1010.7 in Calm     46 % 0.0 in 809.0 W/m2 CLR
13:34 11.9 °F 0.7 °F 1010.7 in NNW 17.7 mph 17.7 mph 46 % 0.0 in 831.0 W/m2 CLR
13:39 11.8 °F -0.1 °F 1010.7 in Calm     44 % 0.0 in 853.0 W/m2 CLR
13:44 11.8 °F -0.1 °F 1010.7 in Calm     44 % 0.0 in 817.0 W/m2 CLR
13:49 11.9 °F 0.3 °F 1010.4 in Calm     45 % 0.0 in 796.0 W/m2 CLR
13:54 12.1 °F 0.2 °F 1010.4 in WNW 5.6 mph 5.6 mph 44 % 0.0 in 803.0 W/m2 CLR
13:59 12.4 °F -0.5 °F 1010.4 in NNW 1.9 mph   41 % 0.0 in 830.0 W/m2 CLR
14:04 12.5 °F -0.1 °F 1010.4 in NNE 14.8 mph 14.8 mph 42 % 0.0 in 795.0 W/m2 CLR
14:05 12.6 °F -0.1 °F 1010.4 in North 14.8 mph 14.8 mph 42 % 0.0 in 795.0 W/m2 CLR
14:10 12.1 °F -0.2 °F 1010.4 in NNE 16.7 mph 16.7 mph 43 % 0.0 in 130.0 W/m2 CLR
14:15 11.8 °F -0.4 °F 1010.4 in Calm     43 % 0.0 in 833.0 W/m2 CLR
14:20 12.2 °F -0.4 °F 1010.0 in West 9.3 mph 9.3 mph 42 % 0.0 in 772.0 W/m2 CLR
14:25 12.5 °F -0.4 °F 1010.0 in NE 1.6 mph 1.6 mph 41 % 0.0 in 780.0 W/m2 CLR
14:30 12.9 °F 0.3 °F 1010.0 in SW 3.2 mph 3.2 mph 42 % 0.0 in 772.0 W/m2 CLR
14:40 13.2 °F -0.4 °F 1009.7 in Calm     39 % 0.0 in 770.0 W/m2 CLR
14:45 13.6 °F -0.2 °F 1009.7 in NE 5.6 mph 5.6 mph 39 % 0.0 in 758.0 W/m2 CLR
14:50 13.5 °F -0.6 °F 1009.7 in Calm     38 % 0.0 in 640.0 W/m2 CLR
14:55 13.3 °F 0.0 °F 1009.7 in North 20.4 mph 20.4 mph 40 % 0.0 in 643.0 W/m2 CLR
15:00 12.9 °F -0.7 °F 1009.4 in NW 11.3 mph 11.9 mph 39 % 0.0 in 524.0 W/m2 CLR
15:05 12.7 °F -0.2 °F 1009.4 in NW 13.0 mph 13.0 mph 41 % 0.0 in 524.0 W/m2 CLR
15:10 12.6 °F -0.7 °F 1009.4 in NNW 18.5 mph 18.5 mph 40 % 0.0 in 735.0 W/m2 CLR
15:15 12.7 °F -0.6 °F 1009.4 in NW 20.4 mph 20.4 mph 40 % 0.0 in 752.0 W/m2 CLR
15:20 12.3 °F -0.2 °F 1009.4 in North 14.8 mph 14.8 mph 42 % 0.0 in 397.0 W/m2 CLR
15:25 12.3 °F -0.9 °F 1009.4 in North 20.4 mph 20.4 mph 40 % 0.0 in 348.0 W/m2 CLR
15:30 12.1 °F -1.2 °F 1009.4 in NE 19.3 mph 19.3 mph 40 % 0.0 in 309.0 W/m2 CLR
15:35 11.9 °F -1.3 °F 1009.4 in ENE 18.5 mph 18.5 mph 40 % 0.0 in 246.0 W/m2 CLR
15:40 11.9 °F -0.9 °F 1009.4 in NNE 13.0 mph 13.4 mph 41 % 0.0 in 204.0 W/m2 CLR
15:45 11.8 °F -1.4 °F 1009.7 in Calm     40 % 0.0 in 153.0 W/m2 CLR
15:50 11.7 °F -0.8 °F 1009.7 in North 12.9 mph 12.9 mph 42 % 0.0 in 109.0 W/m2 CLR
15:55 11.6 °F -1.3 °F 1009.7 in NE 14.8 mph 14.8 mph 41 % 0.0 in 77.0 W/m2 CLR
16:00 11.4 °F -1.4 °F 1010.0 in Calm     41 % 0.0 in 62.0 W/m2 FEW
16:02 11.4 °F -1.4 °F 1010.0 in Calm     41 % 0.0 in 58.0 W/m2 FEW
16:07 11.4 °F -1.4 °F 1010.0 in Calm     41 % 0.0 in 47.0 W/m2 SCT
16:12 11.3 °F -1.1 °F 1010.0 in Calm     42 % 0.0 in 42.0 W/m2 SCT
16:17 11.3 °F -0.8 °F 1010.4 in Calm     43 % 0.0 in 39.0 W/m2 BKN
16:22 11.2 °F -0.1 °F 1010.4 in SW 38.9 mph 38.9 mph 46 % 0.0 in 35.0 W/m2 BKN
16:27 10.0 °F 0.8 °F 1010.7 in WSW 25.9 mph 25.9 mph 53 % 0.0 in 33.0 W/m2 BKN
16:32 9.4 °F 1.6 °F 1011.1 in SW 12.9 mph 12.9 mph 58 % 0.3 in 33.0 W/m2 RA
16:37 9.1 °F 1.4 °F 1011.1 in SSW 22.2 mph 22.2 mph 59 % 0.3 in 44.0 W/m2 BKN
16:42 8.9 °F 2.2 °F 1011.1 in South 18.5 mph 18.5 mph 63 % 0.5 in 42.0 W/m2 RA
16:47 8.7 °F 2.0 °F 1011.1 in SSW 18.5 mph 18.5 mph 63 % 0.5 in 33.0 W/m2 BKN
16:52 8.4 °F 2.8 °F 1011.1 in SSW 8.0 mph 8.0 mph 68 % 0.5 in 33.0 W/m2 BKN
16:57 8.1 °F 2.9 °F 1011.1 in South 18.5 mph 18.5 mph 70 % 0.5 in 58.0 W/m2 BKN
17:02 8.0 °F 2.7 °F 1011.1 in SSW 18.5 mph 18.5 mph 69 % 0.5 in 86.0 W/m2 SCT
17:07 7.9 °F 2.8 °F 1011.1 in South 18.5 mph 18.5 mph 70 % 0.5 in 84.0 W/m2 FEW
17:12 7.7 °F 2.8 °F 1011.1 in South 11.1 mph 11.1 mph 71 % 0.5 in 74.0 W/m2 RA
17:17 7.6 °F 3.1 °F 1011.1 in SSE 14.8 mph 14.8 mph 73 % 0.5 in 118.0 W/m2 FEW
17:19 7.6 °F 3.2 °F 1011.1 in South 14.8 mph 14.8 mph 74 % 0.5 in 121.0 W/m2 CLR
17:24 7.5 °F 3.2 °F 1011.1 in SSW 18.5 mph 18.5 mph 74 % 0.5 in 105.0 W/m2 CLR
17:29 7.4 °F 3.4 °F 1011.1 in SSE 11.1 mph 11.1 mph 76 % 0.5 in 105.0 W/m2 CLR
17:34 7.3 °F 3.6 °F 1011.1 in SSE 22.5 mph 22.5 mph 77 % 0.5 in 109.0 W/m2 CLR
17:39 7.4 °F 3.4 °F 1011.1 in South 16.7 mph 16.7 mph 76 % 0.3 in 125.0 W/m2 CLR
17:44 7.2 °F 3.7 °F 1011.4 in South 18.5 mph 18.5 mph 78 % 0.3 in 139.0 W/m2 CLR
17:49 7.1 °F 3.7 °F 1011.4 in SSE 19.3 mph 19.3 mph 79 % 0.3 in 244.0 W/m2 CLR
17:54 7.3 °F 3.9 °F 1011.4 in SSE 27.8 mph 27.8 mph 79 % 0.3 in 283.0 W/m2 CLR
17:59 7.4 °F 3.8 °F 1011.4 in SE 25.7 mph 25.7 mph 78 % 0.3 in 281.0 W/m2 CLR
18:04 7.4 °F 3.8 °F 1011.4 in SSE 18.5 mph 18.5 mph 78 % 0.3 in 137.0 W/m2 CLR
18:09 7.3 °F 3.7 °F 1011.4 in SE 18.5 mph 18.5 mph 78 % 0.3 in 111.0 W/m2 CLR
18:14 7.1 °F 3.7 °F 1011.4 in South 18.5 mph 18.5 mph 79 % 0.0 in 97.0 W/m2 CLR
18:19 6.9 °F 3.7 °F 1011.7 in SE 16.7 mph 16.7 mph 80 % 0.0 in 84.0 W/m2 CLR
18:24 6.8 °F 3.6 °F 1011.7 in SSE 11.3 mph 11.3 mph 80 % 0.0 in 65.0 W/m2 FEW
18:29 6.7 °F 3.6 °F 1011.7 in South 13.0 mph 13.0 mph 81 % 0.0 in 46.0 W/m2 SCT
18:34 6.6 °F 3.5 °F 1011.7 in South 20.4 mph 20.4 mph 81 % 0.0 in 33.0 W/m2 BKN
18:40 6.6 °F 3.6 °F 1012.1 in SSE 22.2 mph 22.2 mph 81 % 0.0 in 28.0 W/m2 BKN
18:44 6.6 °F 3.6 °F 1011.7 in South 16.7 mph 16.7 mph 81 % 0.0 in 28.0 W/m2 BKN
18:49 6.6 °F 3.3 °F 1012.1 in SSE 22.2 mph 22.2 mph 80 % 0.0 in 28.0 W/m2 BKN
18:59 6.6 °F 3.3 °F 1012.1 in SSE 18.5 mph 18.5 mph 80 % 0.0 in 12.0 W/m2 BKN
19:05 6.6 °F 3.2 °F 1012.1 in South 12.9 mph 12.9 mph 79 % 0.0 in 5.0 W/m2 BKN
19:10 6.6 °F 3.1 °F 1012.1 in SSE 18.5 mph 18.5 mph 78 % 0.0 in 0.0 W/m2 OVC
19:15 6.6 °F 3.1 °F 1012.1 in South 14.8 mph 14.8 mph 78 % 0.0 in 0.0 W/m2 OVC
19:20 6.6 °F 3.1 °F 1012.1 in South 18.5 mph 18.5 mph 78 % 0.0 in 0.0 W/m2 OVC
19:25 6.6 °F 3.1 °F 1012.1 in South 22.2 mph 22.2 mph 78 % 0.0 in 0.0 W/m2 OVC
19:30 6.4 °F 3.1 °F 1012.1 in SSE 14.8 mph 14.8 mph 79 % 0.0 in 0.0 W/m2 CLR
19:35 6.4 °F 2.9 °F 1012.1 in South 20.4 mph 20.4 mph 78 % 0.0 in 0.0 W/m2 CLR
19:40 6.4 °F 2.8 °F 1012.4 in SSE 20.4 mph 20.4 mph 78 % 0.0 in 0.0 W/m2 CLR
19:45 6.4 °F 2.8 °F 1012.4 in SE 14.5 mph 14.5 mph 78 % 0.0 in 0.0 W/m2 CLR
19:50 6.4 °F 2.8 °F 1012.4 in SSE 14.8 mph 14.8 mph 78 % 0.0 in 0.0 W/m2 CLR
19:55 6.5 °F 2.8 °F 1012.4 in SSE 14.8 mph 14.8 mph 77 % 0.0 in 0.0 W/m2 CLR
20:00 6.6 °F 2.8 °F 1012.4 in SE 13.0 mph 13.0 mph 77 % 0.0 in 0.0 W/m2 CLR
20:05 6.5 °F 2.9 °F 1012.4 in SSE 11.1 mph 11.1 mph 78 % 0.0 in 0.0 W/m2 CLR
20:10 6.4 °F 2.8 °F 1012.8 in South 9.3 mph 9.3 mph 78 % 0.0 in 0.0 W/m2 CLR
20:15 6.3 °F 2.7 °F 1012.8 in SSW 5.6 mph   78 % 0.0 in 0.0 W/m2 CLR
20:20 6.2 °F 2.8 °F 1012.8 in SSW 5.6 mph 5.6 mph 79 % 0.0 in 0.0 W/m2 CLR
20:25 6.1 °F 2.7 °F 1012.8 in Calm     79 % 0.0 in 0.0 W/m2 CLR
20:30 5.9 °F 2.7 °F 1012.8 in Calm     80 % 0.0 in 0.0 W/m2 CLR
20:35 5.8 °F 2.6 °F 1012.8 in Calm     80 % 0.0 in 0.0 W/m2 CLR
20:40 5.6 °F 2.6 °F 1012.8 in Calm     81 % 0.0 in 0.0 W/m2 CLR
20:45 5.5 °F 2.7 °F 1012.8 in Calm     82 % 0.0 in 0.0 W/m2 CLR
20:50 5.4 °F 2.4 °F 1012.8 in Calm     81 % 0.0 in 0.0 W/m2 CLR
20:55 5.3 °F 2.4 °F 1012.8 in Calm     82 % 0.0 in 0.0 W/m2 CLR
21:00 5.2 °F 2.4 °F 1013.1 in Calm     82 % 0.0 in 0.0 W/m2 CLR
21:05 5.2 °F 2.3 °F 1013.1 in Calm     82 % 0.0 in 0.0 W/m2 CLR
21:10 5.2 °F 2.5 °F 1013.1 in Calm     83 % 0.0 in 0.0 W/m2 CLR
21:15 5.2 °F 2.4 °F 1013.1 in Calm     82 % 0.0 in 0.0 W/m2 CLR
21:20 5.2 °F 2.4 °F 1013.1 in Calm     82 % 0.0 in 0.0 W/m2 CLR
21:25 5.2 °F 2.4 °F 1013.4 in Calm     82 % 0.0 in 0.0 W/m2 CLR
21:30 5.3 °F 2.3 °F 1013.1 in Calm     81 % 0.0 in 0.0 W/m2 CLR
21:35 5.3 °F 2.3 °F 1013.4 in Calm     81 % 0.0 in 0.0 W/m2 CLR
21:40 5.3 °F 2.4 °F 1013.4 in Calm     82 % 0.0 in 0.0 W/m2 CLR
21:45 5.2 °F 2.3 °F 1013.4 in Calm     82 % 0.0 in 0.0 W/m2 CLR
21:50 5.1 °F 2.4 °F 1013.8 in Calm     83 % 0.0 in 0.0 W/m2 CLR
21:55 4.8 °F 2.3 °F 1013.8 in Calm     84 % 0.0 in 0.0 W/m2 CLR
22:00 4.8 °F 2.4 °F 1013.8 in Calm     85 % 0.0 in 0.0 W/m2 CLR
22:05 4.8 °F 2.5 °F 1013.8 in Calm     85 % 0.0 in 0.0 W/m2 CLR
22:10 4.7 °F 2.4 °F 1013.8 in Calm     85 % 0.0 in 0.0 W/m2 CLR
22:15 4.6 °F 2.3 °F 1013.8 in Calm     85 % 0.0 in 0.0 W/m2 CLR
22:20 4.4 °F 2.3 °F 1013.8 in Calm     86 % 0.0 in 0.0 W/m2 CLR
22:25 4.4 °F 2.3 °F 1014.1 in Calm     86 % 0.0 in 0.0 W/m2 CLR
22:30 4.3 °F 2.3 °F 1014.1 in Calm     87 % 0.0 in 0.0 W/m2 CLR
22:35 4.3 °F 2.3 °F 1013.8 in Calm     87 % 0.0 in 0.0 W/m2 CLR
22:40 4.2 °F 2.2 °F 1013.8 in Calm     87 % 0.0 in 0.0 W/m2 CLR
22:45 4.2 °F 2.2 °F 1013.8 in Calm     87 % 0.0 in 0.0 W/m2 CLR
22:50 4.2 °F 2.2 °F 1014.1 in Calm     87 % 0.0 in 0.0 W/m2 CLR
22:55 4.2 °F 2.3 °F 1014.1 in Calm     88 % 0.0 in 0.0 W/m2 CLR
23:01 4.1 °F 2.1 °F 1014.1 in Calm     87 % 0.0 in 0.0 W/m2 CLR
23:06 4.0 °F 2.2 °F 1014.1 in Calm     88 % 0.0 in 0.0 W/m2 CLR
23:11 3.9 °F 2.1 °F 1014.1 in Calm     88 % 0.0 in 0.0 W/m2 CLR
23:16 3.8 °F 2.0 °F 1014.4 in Calm     88 % 0.0 in 0.0 W/m2 CLR
23:21 3.7 °F 2.1 °F 1014.1 in Calm     89 % 0.0 in 0.0 W/m2 CLR
23:26 3.7 °F 2.0 °F 1014.4 in Calm     89 % 0.0 in 0.0 W/m2 CLR
23:31 3.6 °F 1.9 °F 1014.1 in Calm     89 % 0.0 in 0.0 W/m2 CLR
23:36 3.6 °F 1.9 °F 1014.1 in Calm     89 % 0.0 in 0.0 W/m2 CLR
23:41 3.7 °F 2.0 °F 1014.1 in Calm     89 % 0.0 in 0.0 W/m2 CLR
23:46 3.6 °F 1.9 °F 1014.4 in Calm     89 % 0.0 in 0.0 W/m2 CLR
23:51 3.5 °F 1.8 °F 1014.4 in Calm     89 % 0.0 in 0.0 W/m2 CLR
23:56 3.4 °F 1.7 °F 1014.4 in Calm     89 % 0.0 in 0.0 W/m2 CLR
Lo Temps de Massalio
Compliments of Weather Underground - 1.25 mb